User: anonymous   Login
Location: Unspecified
(0.0000°N, 0.0000°E)
Time: 10:18:19
(UTC+00:00)
Language:

Tansei-3 - Orbit

View from above orbital plane
View from above orbital plane
View from above satellite
View from above satellite

Ground track
Ground track

The orbit data is extracted from the following two-line orbital elements,

1  9841U 77012A   18231.89156462 -.00000068 +00000-0 -87103-4 0  9994
2  9841 065.7541 109.6561 1733536 349.9397 007.0589 10.73815581626790
Epoch (UTC): 19 August 2018 21:23:51
Eccentricity: 0.1733536
inclination: 65.7541°
perigee height: 796 km
apogee height: 3805 km
right ascension of ascending node: 109.6561°
argument of perigee: 349.9397°
revolutions per day: 10.73815581
mean anomaly at epoch: 7.0589°
orbit number at epoch: 62679

The dashed part of the orbit path shows where the satellite is in the earth's shadow,  

DLR